Location: La Sioule Rivi�re
(46.3664°N, 3.3197°E)
Time: 13:07:31
(UTC+00:00)

CZ-4 R/B - Pass Details

Date: 29 October 2020
Orbit: 531 x 599 km, 97.7° (Epoch: 23 November)

Event Time Altitude Azimuth Distance (km) Brightness Sun altitude
Rises 17:24:10 0° 135° (SE) 2,694 4.5 -8.9°
Reaches altitude 10° 17:26:33 10° 122° (ESE) 1,798 3.5 -9.3°
Maximum altitude 17:29:43 25° 67° (ENE) 1,121 2.3 -9.8°
Drops below altitude 10° 17:32:53 10° 12° (NNE) 1,795 3.7 -10.3°
Sets 17:35:15 0° 359° (N) 2,689 4.8 -10.7°
